TimeEST,TemperatureF,Dew PointF,Humidity,Sea Level PressureIn,VisibilityMPH,Wind Direction,Wind SpeedMPH,Gust SpeedMPH,PrecipitationIn,Events,Conditions,WindDirDegrees,DateUTC
12:54 AM,-5.1,-14.1,65,29.94,10.0,West,5.8,-,N/A,,Clear,260,2013-01-25 05:54:00
1:54 AM,-5.1,-14.1,65,29.94,10.0,West,8.1,-,N/A,,Mostly Cloudy,270,2013-01-25 06:54:00
2:46 AM,-4.0,-13.0,65,29.89,10.0,WNW,5.8,-,N/A,,Mostly Cloudy,290,2013-01-25 07:46:00
2:54 AM,-4.0,-13.0,65,29.96,10.0,West,5.8,-,N/A,,Overcast,280,2013-01-25 07:54:00
3:16 AM,-2.2,-13.0,60,29.88,10.0,West,8.1,-,N/A,,Scattered Clouds,280,2013-01-25 08:16:00
3:54 AM,-2.9,-13.0,62,29.95,10.0,WNW,12.7,18.4,N/A,,Clear,290,2013-01-25 08:54:00
4:54 AM,-4.0,-13.0,65,29.95,10.0,WNW,12.7,19.6,N/A,,Clear,290,2013-01-25 09:54:00
5:54 AM,-2.9,-13.0,62,29.97,10.0,WNW,11.5,17.3,N/A,,Clear,290,2013-01-25 10:54:00
6:54 AM,-2.9,-11.9,65,29.98,10.0,West,6.9,-,N/A,,Clear,280,2013-01-25 11:54:00
7:54 AM,-2.0,-11.0,66,30.01,10.0,West,8.1,-,N/A,,Clear,280,2013-01-25 12:54:00
8:54 AM,1.0,-9.9,60,30.02,10.0,WNW,10.4,23.0,N/A,,Clear,290,2013-01-25 13:54:00
9:33 AM,1.4,-9.4,61,29.97,10.0,NW,20.7,26.5,N/A,,Mostly Cloudy,310,2013-01-25 14:33:00
9:40 AM,3.2,-9.4,56,29.97,10.0,NW,19.6,26.5,N/A,,Scattered Clouds,310,2013-01-25 14:40:00
9:54 AM,3.0,-8.0,60,30.04,10.0,NW,27.6,34.5,N/A,,Partly Cloudy,310,2013-01-25 14:54:00
10:15 AM,3.2,-7.6,61,29.98,10.0,NW,17.3,29.9,N/A,,Mostly Cloudy,310,2013-01-25 15:15:00
10:54 AM,5.0,-7.1,58,30.05,10.0,NW,16.1,23.0,N/A,,Overcast,310,2013-01-25 15:54:00
11:54 AM,7.0,-6.0,55,30.03,10.0,WNW,18.4,25.3,N/A,,Overcast,300,2013-01-25 16:54:00
12:54 PM,7.0,-6.0,55,30.02,10.0,WNW,15.0,25.3,N/A,,Mostly Cloudy,290,2013-01-25 17:54:00
1:54 PM,8.1,-5.1,55,30.02,10.0,NW,19.6,25.3,N/A,,Mostly Cloudy,310,2013-01-25 18:54:00
2:54 PM,7.0,-6.0,55,30.02,10.0,WNW,12.7,-,N/A,,Scattered Clouds,300,2013-01-25 19:54:00
3:54 PM,7.0,-6.0,55,30.02,10.0,WNW,6.9,-,N/A,,Clear,290,2013-01-25 20:54:00
4:54 PM,5.0,-6.0,61,30.02,10.0,WNW,8.1,-,N/A,,Partly Cloudy,290,2013-01-25 21:54:00
5:54 PM,3.9,-7.1,60,30.02,10.0,West,5.8,-,N/A,,Clear,280,2013-01-25 22:54:00
6:54 PM,1.9,-7.1,66,30.02,10.0,Calm,Calm,-,N/A,,Clear,0,2013-01-25 23:54:00
7:54 PM,-0.0,-9.0,66,30.04,10.0,WSW,6.9,-,N/A,,Clear,250,2013-01-26 00:54:00
8:54 PM,-0.9,-9.9,66,30.05,10.0,SW,5.8,-,N/A,,Clear,230,2013-01-26 01:54:00
9:54 PM,-2.0,-11.0,66,30.05,10.0,SW,6.9,-,N/A,,Clear,230,2013-01-26 02:54:00
10:54 PM,-2.9,-11.0,68,30.05,10.0,WSW,6.9,-,N/A,,Clear,240,2013-01-26 03:54:00
11:54 PM,-4.0,-11.9,69,30.03,10.0,West,4.6,-,N/A,,Clear,280,2013-01-26 04:54:00